RH
25 25 25 25 26 27 30 34 37 39 39 39 38 38 38 39 40 41 42 42 43 43 43 43 40 38 36 32 28 25 21 19 16 13 11 9 8 8 8 8 8 9 9 9 9 9 10 12 16 22 29 36 42 48 53 55 55 56 60 62 63 65 70 79 84 79 72 64 62 60 54 52 52 51 49 45 41 37 34 32 29 26 23 20 18
28 28 27 27 28 30 32 35 36 37 37 36 36 37 38 40 42 44 45 44 43 42 39 36 32 28 27 24 21 18 15 13 10 9 8 7 7 7 7 8 8 9 11 12 12 13 14 15 18 21 26 32 38 46 55 62 66 68 68 65 66 67 68 77 86 85 81 77 75 68 61 61 60 56 53 49 47 42 37 35 31 28 24 20 18
29 29 28 29 30 32 34 35 36 37 37 38 38 38 41 44 45 45 44 42 39 35 30 25 21 20 18 15 13 11 9 8 6 6 6 6 6 6 7 7 8 9 11 13 15 16 18 19 20 21 24 27 29 34 43 56 69 78 79 74 72 71 70 75 84 88 87 85 85 77 69 67 66 62 58 54 52 48 43 38 34 30 25 20 17
31 31 31 32 34 35 37 38 39 40 40 40 40 42 44 46 45 44 42 39 36 31 24 19 16 13 11 9 7 6 5 5 5 5 5 5 5 6 7 6 7 8 9 11 12 15 17 19 21 23 24 26 27 28 33 43 58 72 82 84 82 78 76 78 81 85 89 90 89 84 81 76 70 67 65 60 56 53 47 41 36 32 27 21 17
34 33 34 35 37 39 40 42 43 43 43 44 44 45 46 46 45 45 44 41 36 30 21 15 11 8 6 5 4 4 4 4 4 4 5 5 5 6 7 7 7 7 7 8 9 11 13 15 19 22 27 30 31 31 31 35 42 54 69 80 84 84 83 82 83 84 86 91 93 89 88 85 76 71 70 66 61 56 51 45 39 34 30 24 18
37 37 38 39 41 43 45 46 46 46 46 47 47 47 47 48 47 46 45 42 36 27 17 10 7 5 4 4 4 4 4 5 6 5 6 6 6 6 7 8 8 7 7 8 8 9 10 11 14 17 21 27 34 36 36 38 39 41 50 63 76 87 90 83 81 85 87 88 91 92 92 91 86 79 74 71 68 62 56 50 42 36 30 26 19
41 42 43 45 46 47 48 48 48 48 48 48 48 49 49 48 48 47 45 38 29 19 10 7 5 4 4 4 5 5 5 6 7 8 9 9 9 9 10 11 10 10 10 10 11 11 11 11 12 12 13 17 22 27 31 39 43 44 45 48 56 72 86 86 81 83 87 88 89 91 92 93 91 86 78 74 72 67 60 52 44 36 29 26 21
44 46 48 49 50 50 50 49 47 47 49 51 51 51 51 50 49 45 37 26 16 10 7 6 5 4 5 6 7 7 7 8 9 10 12 12 12 13 13 14 14 15 14 14 14 14 14 13 13 13 13 13 14 15 18 26 34 41 50 53 53 55 64 77 86 86 84 86 90 92 92 95 95 90 83 77 73 70 64 53 42 35 29 25 20
49 51 52 52 51 50 49 47 48 51 53 55 54 54 54 52 46 36 24 13 9 9 8 7 6 6 7 9 9 10 10 11 11 11 12 13 13 14 16 17 18 18 18 18 17 16 16 15 16 15 15 15 14 14 14 15 18 23 33 45 55 60 58 60 72 86 90 87 89 94 95 96 95 92 86 80 75 72 68 55 40 32 29 26 20
53 53 53 52 50 49 49 50 53 57 57 57 57 56 54 48 38 26 16 11 10 11 9 7 7 8 9 10 10 11 12 13 14 14 15 16 16 17 18 19 20 21 22 22 21 20 20 19 20 19 18 17 15 15 15 14 14 14 15 22 33 48 62 64 59 69 88 94 90 93 97 99 97 93 89 82 75 70 67 58 42 32 28 25 21
54 53 51 50 50 51 54 58 60 59 57 57 57 55 51 41 29 19 13 13 13 11 8 8 9 10 11 11 12 13 15 16 16 17 18 20 20 20 21 22 23 24 25 26 27 27 26 26 27 26 25 23 21 19 19 18 18 16 15 15 17 24 41 62 66 63 75 90 95 94 96 101 100 97 92 81 72 66 62 57 44 32 29 25 21
52 51 50 51 55 58 61 61 58 55 56 59 58 52 42 31 22 18 17 17 15 11 9 11 13 15 15 15 16 17 19 20 19 19 20 20 21 20 20 21 21 23 26 27 30 32 32 31 32 33 32 31 30 28 26 26 25 23 22 19 19 19 21 35 54 64 72 85 95 96 96 100 101 98 93 81 71 64 57 55 46 34 31 28 23
53 54 57 60 63 63 63 59 56 57 60 59 51 40 31 26 26 25 22 18 15 12 13 15 18 20 21 21 21 22 22 22 21 19 19 18 17 17 16 16 16 17 20 22 25 28 31 33 35 37 36 36 37 36 36 35 33 31 30 26 23 22 22 22 28 44 66 84 95 97 96 100 101 98 93 81 69 63 57 55 49 37 33 31 25
60 65 70 70 69 66 61 58 57 57 53 44 33 29 30 33 33 28 22 18 16 15 17 18 20 23 25 25 24 23 21 19 18 16 15 14 13 12 12 12 11 12 13 15 17 19 22 26 31 35 37 37 38 40 42 43 43 40 37 35 32 26 26 26 23 26 45 74 95 99 96 99 102 99 92 80 68 64 60 56 49 40 36 33 28
70 76 76 74 71 66 60 57 55 47 38 29 27 34 39 38 33 27 22 19 17 19 20 22 23 24 25 23 20 17 15 13 12 11 10 10 9 9 9 8 8 8 9 10 10 11 12 14 18 25 31 36 39 42 48 50 50 48 43 42 41 37 34 30 27 25 31 62 95 100 97 100 101 100 94 81 70 65 61 56 50 44 40 36 31
77 79 77 74 68 59 54 50 42 32 25 23 29 39 40 35 30 26 23 21 21 23 25 25 24 22 20 15 12 10 9 8 8 7 7 7 6 7 7 6 6 6 6 6 7 6 7 7 9 13 20 31 41 48 55 59 58 54 50 49 48 49 48 40 35 31 32 63 97 100 98 101 100 100 97 84 72 65 62 59 55 48 45 40 34
78 78 71 61 51 43 38 30 22 18 17 20 30 41 41 37 35 31 26 23 23 25 26 24 20 17 13 9 7 7 6 6 6 6 6 5 6 6 5 5 5 5 5 5 6 5 5 6 6 7 10 20 37 55 67 68 66 63 59 58 57 57 59 54 50 44 45 75 101 99 99 103 99 100 99 85 73 68 66 64 60 54 49 45 38
71 63 51 41 34 28 21 16 16 19 24 32 43 50 52 50 46 39 31 24 23 25 25 21 15 11 9 7 6 6 5 5 5 5 5 5 5 5 5 6 5 5 5 5 5 6 6 6 5 6 7 11 27 52 74 82 77 72 68 66 65 66 66 65 67 69 73 91 102 98 99 102 99 101 99 87 76 74 73 68 64 60 55 49 43
56 48 41 34 26 19 19 22 26 32 42 52 57 58 60 61 56 48 36 25 24 27 23 16 10 7 6 6 5 5 5 5 5 5 5 5 5 5 5 6 5 5 5 5 6 6 5 5 6 6 6 12 25 43 66 87 90 82 76 71 69 73 74 72 80 90 95 99 101 99 100 100 100 101 100 91 81 78 77 73 69 66 60 54 48
49 45 36 25 18 20 29 35 40 49 62 68 70 71 75 75 67 52 35 24 24 26 20 12 7 6 6 5 5 5 5 5 6 5 6 6 5 6 5 5 5 5 5 5 6 6 5 6 6 7 13 27 45 58 69 84 93 92 86 78 74 77 78 80 89 99 100 100 101 100 100 100 100 101 101 94 86 82 81 78 75 72 67 61 53
45 35 24 19 22 31 39 45 54 67 78 82 85 88 87 79 62 41 26 22 25 25 16 8 6 5 6 5 5 6 5 6 6 6 6 6 5 6 5 5 5 5 5 5 5 5 5 6 8 15 27 41 58 78 90 91 94 97 93 87 84 82 83 88 96 101 100 100 101 100 99 100 100 100 101 97 89 86 86 83 81 78 73 66 58
33 24 23 27 34 45 53 61 75 87 93 95 94 89 79 62 42 27 22 24 25 20 12 6 6 5 5 5 5 6 6 6 6 6 6 5 5 5 5 5 5 4 5 4 4 5 4 6 13 22 32 43 57 79 96 99 98 99 95 94 92 88 90 97 100 100 100 100 101 100 99 100 100 100 101 100 93 89 90 89 86 83 78 71 64
25 25 31 39 50 62 72 82 94 100 100 98 89 75 58 41 27 22 24 26 21 14 8 5 5 5 5 6 6 6 6 6 6 6 6 5 5 5 5 4 4 4 4 4 4 5 5 7 14 21 28 40 56 73 89 99 102 98 96 97 96 94 98 101 100 99 100 102 101 100 99 99 100 100 100 101 98 93 92 92 90 87 81 75 69
28 33 39 51 66 80 88 94 97 94 89 80 64 47 33 25 23 25 26 23 15 8 5 5 5 5 6 6 6 6 6 6 6 6 5 5 5 5 5 4 4 4 4 4 4 4 5 6 10 16 27 44 63 78 91 101 101 96 98 100 97 98 101 100 99 100 100 102 101 99 100 100 99 100 101 101 99 96 94 94 93 89 84 79 74
35 42 49 62 79 91 93 89 83 76 66 52 36 28 25 26 27 25 21 14 8 6 6 6 5 6 6 6 6 6 6 6 6 6 5 5 5 4 4 4 4 4 3 4 4 4 4 5 7 14 31 55 80 94 99 100 97 97 101 102 99 100 101 100 100 100 101 101 100 99 100 100 100 100 101 101 99 96 95 94 94 92 89 85 79
42 51 59 70 83 88 82 72 63 54 43 32 28 29 30 28 23 16 11 8 6 5 6 6 6 6 6 6 6 6 7 6 6 6 5 5 5 4 4 4 4 4 4 3 3 4 3 3 6 15 39 73 95 101 100 98 96 98 101 102 100 100 101 100 100 100 101 101 99 100 100 100 100 100 101 102 100 97 96 96 96 95 94 90 82
58 63 66 71 76 75 68 55 43 34 30 30 32 31 26 20 13 8 6 6 5 6 6 6 6 6 6 7 7 6 6 6 5 5 5 4 5 4 4 4 4 3 4 4 4 4 3 4 5 15 48 88 103 100 98 97 96 99 102 102 100 100 100 100 100 100 102 101 99 100 100 99 100 100 101 101 101 100 98 98 100 100 99 94 85
63 69 75 76 71 62 49 35 28 28 32 33 30 23 15 9 7 6 5 6 6 6 6 6 6 6 7 6 6 6 6 6 5 5 5 4 4 4 4 4 4 4 4 4 4 4 3 5 6 19 58 96 104 99 98 96 96 100 102 101 99 100 100 99 100 102 102 100 99 100 100 100 100 100 101 101 102 102 101 100 102 102 101 96 88
62 76 82 73 56 40 28 26 30 33 31 27 20 12 8 6 6 6 6 6 6 6 6 7 6 6 6 6 6 6 6 5 5 5 5 5 4 4 4 4 4 4 4 3 4 4 4 6 10 30 72 101 102 98 98 96 98 101 101 100 100 101 100 100 101 102 100 97 98 99 100 100 99 100 101 102 102 102 102 102 102 103 102 98 91
74 79 67 47 32 27 28 32 33 28 21 16 10 6 5 6 6 6 6 6 7 7 6 7 7 6 6 6 6 6 5 5 5 5 5 5 5 4 4 4 4 4 4 4 4 4 7 11 22 49 84 100 98 96 98 99 102 102 100 100 102 100 99 100 101 101 98 97 98 100 100 100 100 100 102 102 101 101 103 102 101 103 102 99 93
62 52 35 27 28 31 33 30 22 15 11 7 5 6 6 7 6 7 7 7 7 7 7 7 7 6 6 6 6 6 6 5 5 5 5 5 5 5 4 4 5 4 4 4 4 6 11 22 44 72 92 97 95 97 100 101 102 102 99 100 102 100 99 100 102 101 99 99 100 100 100 100 99 100 103 103 101 102 103 101 100 101 102 100 94
35 28 26 30 33 31 25 17 10 7 6 5 6 7 6 7 8 7 7 8 8 8 8 7 7 7 6 6 6 6 6 6 5 5 5 5 5 5 5 4 4 4 4 4 6 9 17 38 67 89 95 95 96 98 101 101 101 100 100 99 100 101 100 100 101 101 100 100 100 99 100 100 99 101 104 103 102 102 102 101 100 100 103 101 95
27 29 32 31 26 20 13 7 6 6 7 7 7 7 8 8 9 9 9 9 9 8 8 8 7 7 7 6 6 6 6 6 6 5 5 5 5 5 5 5 4 5 4 6 9 14 27 55 84 95 95 96 98 100 101 101 100 100 100 99 98 99 101 101 101 102 101 100 100 100 100 100 100 101 103 102 102 102 101 100 100 100 103 101 94
31 32 29 22 14 9 6 6 7 7 7 8 8 9 10 9 9 10 10 9 9 8 8 7 7 7 7 7 6 6 6 6 6 6 5 5 5 5 5 5 5 5 6 9 16 25 44 73 94 97 95 97 99 100 101 100 100 100 100 100 98 96 97 97 98 101 102 100 100 100 100 100 100 101 102 101 101 101 100 100 100 101 102 98 92
31 23 16 10 6 6 6 7 8 8 9 10 10 10 10 9 10 9 9 9 8 8 7 7 8 7 7 7 6 6 7 6 6 6 6 6 6 5 6 6 6 7 10 16 29 44 64 87 99 99 97 99 100 100 100 100 100 100 99 100 99 94 90 89 91 98 102 101 100 100 100 100 101 101 102 102 101 101 100 100 100 101 100 96 93
20 12 8 6 6 7 8 8 9 9 10 10 9 10 9 9 9 8 8 9 8 8 8 7 8 8 7 7 7 7 7 6 6 6 6 6 6 5 7 8 9 13 20 33 51 70 85 96 100 100 99 99 100 100 100 100 100 100 100 100 99 94 89 88 91 97 102 102 100 100 100 101 102 103 103 101 100 100 100 99 101 101 98 96 97
10 7 7 7 8 8 9 10 10 10 10 10 9 10 9 9 9 9 8 9 8 8 9 8 8 9 8 8 8 7 7 7 7 7 6 6 6 7 10 13 16 22 34 52 72 88 97 100 100 100 100 100 100 100 100 100 100 100 100 100 99 94 91 94 97 99 102 103 101 100 100 101 102 103 101 100 100 100 100 100 101 100 98 99 100
7 7 8 8 9 10 10 10 10 9 10 10 9 9 9 9 9 9 8 9 9 8 9 9 9 9 9 9 9 8 8 8 7 7 7 7 8 11 16 23 30 39 51 70 87 96 100 100 100 100 100 100 100 100 100 100 100 100 100 100 100 97 95 97 100 102 103 102 101 100 100 101 103 102 100 100 100 100 100 101 102 101 100 101 101
8 8 9 10 10 10 10 9 10 10 9 9 9 9 10 9 9 9 9 9 9 9 9 10 10 10 11 10 10 10 10 9 8 8 8 9 12 17 25 38 51 63 74 86 97 100 100 100 100 100 100 100 100 100 100 100 100 100 100 100 100 99 98 98 100 102 103 102 101 100 101 102 102 101 100 100 100 100 100 101 102 102 100 100 101
9 9 10 10 10 10 10 9 10 9 9 10 10 9 10 10 10 10 10 10 10 10 10 11 11 11 12 12 12 12 11 10 10 10 12 17 24 31 41 55 70 82 91 97 100 100 100 100 100 100 100 100 100 100 100 100 100 100 100 100 100 100 100 99 100 101 101 101 100 101 102 102 102 101 100 100 100 100 101 101 103 102 99 99 101
11 11 10 10 10 10 9 10 10 10 10 10 10 10 10 11 11 10 10 11 11 11 12 12 12 13 13 14 14 13 13 13 14 16 21 30 41 48 57 70 83 93 99 100 100 100 100 100 100 100 100 100 100 100 100 100 100 100 100 100 100 100 100 101 102 101 100 100 99 101 103 103 102 100 100 100 100 100 101 102 102 102 100 100 101
10 10 10 10 10 10 10 10 10 10 11 11 11 11 11 11 11 11 11 12 12 13 14 14 14 15 16 16 16 15 15 16 20 26 32 41 50 60 71 82 93 100 102 100 100 100 100 100 100 100 100 100 100 100 100 100 100 100 100 100 100 100 101 102 103 101 100 100 100 101 103 103 101 100 100 100 100 100 101 102 102 102 102 101 101
10 10 11 10 10 10 10 10 11 11 12 12 12 12 12 12 12 12 12 13 13 15 16 17 18 19 19 18 18 17 18 24 33 40 45 50 58 67 79 90 98 102 101 100 100 100 100 100 100 100 100 100 100 100 100 100 100 100 100 100 100 100 100 101 101 100 100 100 101 103 103 101 100 100 100 100 100 100 100 101 101 101 101 100 100
10 10 11 10 10 11 10 11 12 12 12 13 13 12 12 13 13 13 13 14 14 17 19 21 22 23 22 21 20 20 26 39 51 56 58 63 69 74 83 94 100 102 101 100 100 100 100 100 100 100 100 100 100 100 100 100 100 100 100 100 100 100 100 100 100 100 100 100 102 103 102 100 100 100 100 100 100 100 100 100 101 101 100 100 101
10 10 11 10 11 11 11 12 13 13 14 14 14 14 14 14 14 15 15 15 17 19 22 24 26 26 25 24 23 25 36 54 68 72 73 75 78 80 87 95 101 102 100 99 100 100 100 100 100 100 100 100 100 100 100 100 100 100 100 100 100 100 100 100 100 100 100 100 100 101 101 100 100 100 100 100 100 100 100 101 101 101 101 101 100
11 10 11 11 11 12 12 13 13 14 15 15 15 16 16 16 16 17 17 19 21 22 25 28 29 28 28 27 27 30 42 61 78 85 85 85 86 87 90 95 100 102 101 100 100 100 99 100 100 100 100 100 100 100 100 100 100 100 100 100 100 100 100 100 100 100 100 100 100 100 100 100 100 100 100 100 100 100 100 101 101 100 100 101 99
11 11 11 12 12 13 13 13 14 15 15 16 17 18 18 19 20 21 22 23 25 27 30 31 31 31 31 30 30 36 47 64 81 90 90 90 92 92 91 95 99 101 100 100 100 100 100 100 100 100 100 100 100 100 100 100 100 100 100 100 100 100 100 100 100 100 100 100 100 100 100 100 100 100 100 100 100 100 99 99 100 101 100 100 99
11 12 12 13 13 13 14 14 15 16 16 17 18 19 20 22 24 26 28 27 28 32 34 34 35 35 34 33 36 43 55 68 83 92 93 94 96 92 89 94 101 99 99 100 100 99 100 100 100 100 100 100 100 100 100 100 100 100 100 100 100 100 100 100 100 100 100 100 100 100 100 100 100 100 100 100 100 100 100 99 99 99 100 98 95
12 12 13 14 14 14 15 16 16 17 18 19 20 21 23 26 29 32 33 32 32 34 36 38 39 38 37 37 39 48 63 78 86 90 92 97 103 98 91 94 101 101 99 100 100 99 100 100 100 100 100 100 100 100 100 100 100 100 100 100 100 100 100 100 100 100 100 100 100 100 100 100 100 100 100 100 100 100 101 100 98 97 96 94 89
13 13 14 15 15 16 16 17 18 19 20 21 22 23 25 31 36 39 39 39 38 37 38 41 42 41 40 41 41 52 71 86 90 90 90 92 99 103 99 96 98 100 100 99 100 100 100 99 100 100 100 100 100 100 100 100 100 100 100 100 100 100 100 100 100 100 100 100 100 100 100 100 100 100 100 100 100 100 101 101 100 98 96 93 91
14 14 15 16 16 17 18 18 19 21 22 24 25 26 29 36 42 44 46 47 46 43 44 46 46 45 45 45 47 59 78 90 92 92 92 90 92 98 102 101 99 99 100 100 100 100 100 100 100 100 100 100 100 100 100 100 100 100 100 100 100 100 100 100 100 100 100 100 100 100 100 100 100 100 100 100 100 100 100 101 101 100 99 98 97
Wind_Speed
17 16 15 16 17 17 17 17 17 17 19 21 23 26 29 31 34 36 38 40 42 44 46 47 49 50 50 51 52 53 53 54 53 53 52 51 50 50 49 48 47 47 46 46 46 46 46 46 45 45 46 48 50 51 51 51 51 52 51 51 51 50 49 48 47 49 50 50 49 49 49 47 47 47 47 47 46 45 43 42 42 42 41 41 42
15 15 16 16 18 18 19 20 20 21 23 25 27 30 33 35 37 38 40 42 44 46 48 50 51 53 54 55 55 56 56 56 55 54 54 53 52 50 50 49 48 47 46 47 46 46 46 46 45 45 46 47 49 50 51 51 52 52 52 53 52 52 52 49 48 49 50 51 50 51 49 47 47 48 48 47 46 45 44 43 42 41 40 41 42
16 16 16 17 19 19 21 22 24 25 27 29 31 34 36 37 38 39 41 43 46 48 51 53 55 56 57 57 58 58 57 56 55 54 53 53 51 50 49 48 47 47 46 46 46 46 46 46 46 46 46 47 48 50 51 51 51 51 52 53 53 53 53 51 50 50 51 51 52 52 51 49 47 47 48 48 46 45 44 43 41 40 40 40 41
17 17 18 19 20 21 23 25 27 29 31 34 35 37 38 39 41 43 45 47 50 52 55 57 58 59 59 58 57 56 55 53 52 50 49 49 48 47 46 45 45 45 45 46 46 46 47 47 47 47 47 47 48 49 50 51 51 51 51 52 53 54 54 53 51 52 51 52 53 53 52 51 49 47 47 47 47 46 44 42 41 40 39 39 40
18 19 20 21 21 23 25 27 29 31 33 35 37 39 41 43 45 47 49 51 54 57 59 61 61 60 58 56 54 52 50 47 46 45 43 43 43 43 44 44 44 44 44 44 44 45 45 46 47 47 47 47 47 48 49 49 50 50 51 51 53 54 54 54 53 52 52 52 54 54 52 51 50 48 47 47 47 47 45 43 41 40 40 39 39
20 21 21 22 23 24 26 29 30 32 34 37 40 42 45 48 50 52 54 55 57 60 62 62 61 58 55 52 49 47 45 43 42 42 41 41 41 42 42 43 43 43 43 42 42 42 42 43 44 45 46 47 47 48 49 49 49 49 50 51 52 52 53 55 54 53 53 54 55 55 53 51 51 49 49 48 47 46 45 44 41 40 40 40 39
21 21 21 22 23 25 27 29 32 35 38 41 44 47 49 52 54 56 57 59 61 64 64 61 57 52 49 47 45 43 42 41 40 40 40 40 40 40 40 41 42 43 42 42 42 41 41 41 42 43 43 44 45 47 49 49 50 50 50 51 51 52 52 54 54 53 54 55 55 55 54 53 51 50 49 49 48 47 45 44 42 40 39 40 38
21 21 21 22 23 25 28 32 36 40 43 46 48 50 53 54 55 57 60 63 65 65 63 59 52 47 43 41 40 40 40 40 39 38 37 38 40 40 40 41 41 42 42 42 42 42 42 42 42 43 42 43 44 45 46 47 49 50 51 51 52 52 53 54 54 53 54 55 54 54 55 54 52 51 49 48 49 49 45 42 41 40 40 39 38
21 21 22 23 25 28 32 37 41 44 46 48 50 52 53 54 56 60 63 66 66 62 58 55 50 46 42 39 39 38 38 39 39 38 37 38 40 40 40 40 41 41 42 42 43 43 43 43 43 43 43 43 44 44 45 46 47 49 50 51 52 52 53 54 54 54 54 54 54 54 54 54 54 52 49 48 48 49 46 43 40 41 41 39 38
20 21 23 25 28 32 36 41 45 47 49 50 51 51 53 56 60 64 66 66 62 57 54 52 49 47 45 42 40 38 37 37 37 37 37 38 40 40 40 40 40 40 41 42 44 45 44 44 43 43 43 43 44 45 45 45 46 47 48 50 52 52 53 54 55 54 54 54 55 54 54 54 53 52 49 47 46 46 47 45 41 40 41 39 38
20 22 25 28 32 37 42 45 48 50 51 52 52 53 56 60 64 66 65 61 57 54 51 50 48 47 45 44 42 40 39 39 38 38 37 38 39 40 39 39 38 38 39 40 42 44 45 45 45 45 44 45 46 46 46 46 47 47 47 48 50 51 52 53 54 55 54 54 55 55 55 53 52 51 49 45 45 46 47 47 44 41 41 40 38
21 25 29 34 38 43 46 49 51 52 53 52 53 56 59 62 64 62 59 55 53 51 49 47 46 45 44 43 43 42 42 42 42 41 40 40 40 40 39 39 38 38 38 39 40 42 45 46 46 47 47 48 48 49 49 49 49 49 49 48 48 49 50 52 54 55 55 54 55 55 55 53 51 50 48 45 45 45 46 47 45 43 43 41 39
27 31 35 40 43 46 49 52 54 53 53 53 55 59 61 61 58 55 54 52 51 49 47 45 43 42 43 43 43 43 42 43 43 43 42 42 42 42 41 41 40 39 39 40 40 42 44 45 46 47 49 50 51 52 52 52 51 51 51 50 49 49 49 50 52 54 55 55 54 55 55 53 51 49 48 46 45 44 45 47 45 44 44 42 40
33 37 41 44 46 50 53 54 54 53 54 57 60 61 58 54 51 51 52 51 50 49 47 45 43 42 41 42 42 42 42 42 43 43 43 43 44 44 44 44 43 43 42 42 43 44 45 45 46 47 49 50 51 53 54 54 53 53 53 52 51 50 49 50 51 52 55 55 54 55 55 52 50 48 47 47 46 44 45 45 44 44 45 44 41
39 42 44 46 49 54 55 54 53 55 59 61 60 56 51 49 50 52 52 52 50 49 47 45 43 42 41 41 41 41 42 42 43 43 44 44 45 46 46 46 46 46 46 46 46 46 47 46 46 46 48 50 51 53 54 54 54 54 54 54 52 51 50 50 50 51 53 54 54 54 54 51 49 47 46 46 45 45 44 44 44 45 46 45 42
43 45 46 49 55 57 56 55 57 60 62 60 56 50 47 49 52 52 52 52 50 48 47 45 44 42 41 41 42 42 42 43 43 44 44 44 45 46 47 47 47 47 47 48 48 48 48 48 48 47 46 48 50 51 52 53 53 54 54 54 53 52 51 50 50 50 52 53 53 53 52 50 47 46 45 45 45 45 44 44 45 45 45 45 43
46 46 49 54 57 57 57 59 61 62 60 57 51 46 47 51 54 54 54 52 49 47 45 44 43 43 42 42 42 42 42 42 43 43 44 45 45 46 47 47 48 48 49 49 50 49 50 51 51 50 49 48 48 49 50 51 51 53 54 53 53 52 51 51 51 51 51 53 53 52 50 48 46 44 44 44 44 45 44 44 44 44 45 46 44
48 50 54 57 57 58 60 61 60 59 56 53 48 46 49 53 56 58 58 55 51 47 45 44 43 43 42 41 41 41 41 42 42 43 44 45 46 47 48 49 49 50 51 51 52 52 52 53 53 53 53 51 49 47 48 49 50 52 53 53 53 51 51 51 51 50 50 51 52 50 46 45 44 43 43 43 44 45 44 44 44 44 45 46 44
52 55 57 58 59 61 60 59 57 55 53 51 49 49 53 56 59 61 61 56 51 47 45 44 43 43 42 41 40 41 41 42 43 44 45 46 47 48 49 50 50 51 52 52 53 54 54 54 55 55 55 54 53 50 48 48 49 52 53 53 52 52 51 50 49 49 48 50 50 47 43 42 41 41 41 41 42 44 44 44 44 44 45 45 44
55 56 58 60 60 59 56 55 54 53 52 51 52 54 56 59 62 64 63 57 50 46 45 44 43 42 42 41 41 42 42 43 44 46 47 47 48 49 50 51 52 52 53 53 54 54 55 55 55 55 55 55 57 57 54 52 51 52 53 53 52 52 52 50 48 47 47 48 48 44 40 39 38 39 40 40 41 43 44 44 44 44 44 44 43
55 56 58 59 56 54 53 52 51 51 51 52 54 56 59 62 66 67 63 56 50 46 45 45 44 43 42 42 42 43 44 45 46 47 48 49 49 51 51 52 52 52 53 54 54 54 55 56 55 55 55 56 58 59 59 58 56 54 53 53 52 53 53 50 48 45 44 45 44 40 37 36 36 37 38 39 40 42 43 44 44 44 43 43 42
55 56 55 53 51 51 50 50 50 51 52 54 56 59 63 66 67 64 58 53 50 48 46 46 44 44 44 43 44 45 46 47 48 48 48 49 50 51 52 52 52 52 53 53 53 54 55 55 55 55 56 58 59 60 61 60 58 55 53 52 52 52 51 49 46 43 41 42 40 36 35 34 35 36 37 38 39 41 42 43 43 43 42 41 41
54 53 50 49 49 49 49 50 51 52 54 58 61 65 67 67 64 58 53 50 49 48 47 46 45 44 44 45 45 46 47 47 48 48 48 49 50 51 51 52 52 52 52 53 53 53 54 55 55 56 57 58 59 60 60 59 56 54 51 50 49 49 48 47 43 40 39 39 37 34 33 33 34 35 36 37 38 40 41 42 42 41 41 40 39
51 50 49 48 48 49 49 51 53 56 60 64 66 67 65 62 58 54 51 49 48 47 46 46 45 45 45 46 47 47 47 48 48 48 48 49 49 50 51 51 51 52 53 53 53 54 55 55 55 55 55 57 58 58 57 55 53 51 49 47 46 46 45 43 40 37 37 37 34 32 31 32 33 35 35 36 37 38 39 39 40 40 40 39 38
51 51 50 50 50 50 51 54 58 62 65 65 64 61 58 55 53 51 49 48 48 47 47 47 46 47 47 48 48 48 48 48 48 49 49 49 49 49 50 50 51 53 53 54 54 54 55 54 53 52 53 54 55 55 54 52 50 49 47 45 45 44 42 40 37 36 36 35 32 31 31 31 33 34 34 35 36 36 36 37 38 38 39 38 38
52 52 51 51 51 52 55 59 62 62 61 59 56 55 54 52 51 51 50 49 49 48 48 49 48 49 49 49 50 50 50 50 50 50 50 50 50 50 50 50 52 53 55 55 55 55 55 54 51 50 51 52 52 53 52 50 49 47 45 43 43 42 39 36 35 34 35 33 31 30 31 32 33 33 33 34 34 34 34 35 36 36 37 38 37
52 52 52 53 54 57 60 60 58 57 55 55 54 54 54 53 52 52 52 51 50 50 50 50 50 51 51 51 52 52 52 52 52 52 52 52 51 51 51 51 52 54 55 56 55 55 55 54 52 49 48 48 50 51 49 47 46 45 43 42 41 38 34 33 33 34 34 32 30 30 31 32 32 32 31 32 32 33 34 34 34 35 36 37 37
51 52 53 55 59 60 59 57 55 55 55 55 55 54 54 54 53 53 52 52 52 51 52 52 52 52 52 53 53 53 53 53 53 53 54 53 53 52 52 52 52 53 55 55 56 55 55 54 52 49 46 45 47 48 46 43 42 41 40 40 37 33 31 31 32 34 34 31 29 29 30 31 32 32 30 30 32 33 33 33 33 34 36 37 37
52 53 55 58 58 57 55 55 55 56 56 55 55 54 54 54 53 53 52 52 52 52 52 53 53 53 53 54 54 54 54 54 54 54 55 55 55 54 53 53 52 53 53 54 55 55 54 54 52 49 45 43 44 43 41 39 38 38 38 36 32 29 29 30 33 34 32 30 29 29 30 30 31 31 30 30 31 32 32 32 32 33 35 36 36
53 54 55 55 54 53 54 54 54 55 55 55 55 55 54 54 53 53 53 53 53 53 53 54 54 54 54 54 54 55 55 55 55 55 55 55 55 54 54 53 53 53 52 52 53 53 53 52 51 47 43 41 41 39 36 34 34 35 35 32 28 27 28 30 33 33 31 30 29 28 29 30 30 31 30 29 30 30 31 31 31 33 34 35 35
52 52 52 51 51 52 52 53 54 54 55 55 55 55 54 54 54 54 54 54 54 54 54 54 54 54 54 54 54 54 55 55 55 55 55 55 54 54 53 52 52 51 51 51 51 51 51 49 47 45 42 40 38 35 31 30 31 33 32 28 25 25 28 31 33 32 31 29 28 28 28 29 30 30 29 29 30 30 30 30 31 32 34 34 34
49 49 50 50 51 52 52 53 54 54 55 55 55 54 54 54 55 55 55 55 55 55 55 54 54 54 54 54 54 54 54 54 54 55 55 54 54 54 53 52 51 51 50 50 49 49 48 46 44 42 39 37 35 31 28 28 29 29 28 26 23 24 29 32 32 32 30 29 28 28 28 28 28 29 29 29 29 28 28 28 30 32 33 33 32
48 49 50 50 51 52 53 53 54 54 55 55 55 55 54 54 55 55 55 54 54 54 54 54 54 54 54 54 54 54 54 54 54 54 54 54 54 54 54 53 52 51 50 49 48 47 45 42 40 38 36 34 32 28 26 27 27 26 25 25 24 26 30 32 32 31 30 29 28 27 27 27 27 28 29 29 28 27 27 28 30 31 32 32 29
48 49 49 50 51 51 52 53 54 54 54 54 55 55 55 55 55 55 55 55 54 54 54 54 54 54 54 54 54 54 54 54 54 54 54 54 54 54 54 53 52 51 49 47 46 44 42 39 37 35 33 31 28 26 25 25 26 24 23 25 27 28 30 32 31 30 29 28 27 26 26 26 27 28 28 27 26 26 27 28 30 31 30 29 28
48 49 50 51 51 52 52 53 54 54 54 55 55 55 55 56 56 56 56 55 55 55 55 55 54 54 54 54 54 54 54 54 54 54 54 54 53 53 53 53 52 50 48 46 44 42 39 36 33 32 31 28 26 25 24 23 24 23 23 26 30 31 31 30 29 28 27 26 25 25 25 25 26 26 26 25 25 25 27 28 29 29 28 27 27
49 50 51 51 52 53 53 54 55 55 56 56 56 56 56 56 56 56 56 56 56 56 55 55 55 55 55 55 55 54 54 54 54 54 54 54 54 53 53 52 51 49 46 44 41 38 35 33 30 29 28 26 24 24 24 23 23 24 25 28 32 32 31 29 27 26 26 25 24 24 25 25 24 23 23 24 24 25 27 28 28 27 27 27 26
48 49 50 51 52 53 54 55 56 56 57 57 57 57 57 57 57 57 57 57 56 56 56 56 56 55 55 55 55 55 55 54 54 54 54 53 54 53 53 52 50 47 44 41 38 35 32 29 27 26 25 25 23 23 23 23 24 25 27 30 32 31 30 28 27 26 25 24 23 23 24 24 22 21 22 23 24 25 27 27 27 27 27 27 26
47 49 51 51 52 53 54 55 56 56 57 57 58 58 57 57 57 57 57 57 57 56 56 56 56 56 55 55 55 55 55 55 54 54 53 53 53 53 52 50 49 46 43 39 35 32 29 27 25 24 24 24 23 23 23 24 25 27 28 30 30 30 28 27 26 26 25 23 22 22 23 23 21 20 22 24 25 26 26 26 26 26 27 27 25
48 50 51 52 52 52 53 54 55 56 56 57 57 57 57 58 58 58 58 57 57 56 56 56 55 55 55 55 55 55 55 55 54 53 53 52 52 52 51 49 47 45 41 37 33 30 27 25 23 22 22 22 22 22 23 24 26 28 29 29 28 27 26 26 27 26 23 22 21 20 21 22 20 20 22 24 25 25 25 25 26 27 27 25 24
48 49 50 51 52 52 52 53 54 55 56 57 57 57 57 57 58 58 57 57 56 55 55 55 54 54 54 54 54 54 54 53 53 52 52 52 52 51 50 48 45 42 39 35 31 28 26 23 22 21 21 21 21 21 23 25 27 28 28 27 26 25 24 26 27 25 23 21 20 19 20 21 20 21 23 24 24 24 24 25 26 27 25 22 22
48 48 50 50 51 52 53 53 54 55 55 56 57 57 57 57 57 57 57 56 55 54 54 53 53 53 53 53 53 53 52 52 52 51 51 51 51 50 48 46 43 40 37 33 28 26 24 22 20 19 19 20 20 21 23 25 26 26 25 25 24 23 24 25 25 24 22 20 19 19 19 20 20 22 23 24 23 23 23 24 25 24 22 21 23
47 48 49 50 51 52 53 53 54 55 55 56 57 56 56 56 56 56 56 55 54 53 52 52 52 52 52 52 51 51 50 50 50 50 51 50 49 48 46 44 41 38 34 30 26 24 22 20 18 17 17 18 19 20 22 23 24 23 23 23 24 23 23 24 23 21 20 20 19 19 19 20 21 21 23 24 23 23 24 25 25 24 23 23 24
48 49 50 51 52 52 53 53 54 55 56 56 56 56 56 56 56 56 55 55 54 52 52 51 51 51 51 50 50 49 49 49 49 49 50 49 48 47 45 42 39 36 31 26 23 22 20 18 15 15 15 16 17 18 19 20 21 21 22 22 22 22 22 22 20 19 19 19 19 19 19 19 20 20 22 22 23 24 25 25 25 25 24 23 23
49 50 51 52 52 53 53 53 54 55 55 56 56 56 56 55 55 56 55 54 53 52 51 51 50 50 49 48 48 47 47 47 48 48 48 48 47 46 44 40 36 32 28 23 21 19 18 15 13 12 13 14 14 15 16 17 18 19 20 21 21 21 21 20 18 17 18 18 18 18 18 18 19 20 21 21 21 24 26 26 25 24 22 21 23
49 50 51 51 52 53 53 53 53 54 54 55 55 55 55 55 55 55 54 54 53 52 51 51 50 49 48 47 47 46 45 45 45 46 46 46 46 45 42 38 33 28 24 20 18 17 15 12 11 10 10 11 12 13 14 16 17 18 19 19 19 19 19 18 16 16 17 17 16 16 17 18 19 19 20 21 21 22 24 24 23 22 21 20 22
49 50 51 52 52 53 53 53 54 54 54 54 54 54 55 54 53 53 53 53 52 52 51 50 50 48 47 47 46 45 44 43 42 42 43 44 44 43 40 35 29 24 21 17 15 13 12 10 9 9 9 10 11 12 13 14 15 15 16 17 17 18 18 17 15 15 16 15 15 15 17 19 20 19 20 22 23 23 25 25 23 22 22 22 23
50 50 51 52 53 54 54 54 55 54 54 54 54 53 53 53 53 52 52 52 52 52 51 50 49 48 47 47 46 45 44 42 41 40 40 40 40 39 36 31 25 20 17 15 12 11 11 10 8 8 9 9 10 11 12 12 12 12 13 14 15 16 16 15 15 16 16 16 17 18 19 21 21 20 21 24 25 26 28 29 27 26 25 25 26
50 51 52 53 54 54 55 55 55 55 54 53 53 53 52 52 52 52 52 52 51 51 50 49 48 47 47 46 46 45 43 42 40 38 38 38 38 37 32 26 22 18 16 13 11 10 11 11 9 8 8 8 8 8 9 10 10 9 9 11 11 12 13 13 13 15 16 18 19 21 22 23 23 22 24 26 27 29 31 32 32 31 30 30 31
50 51 52 53 54 55 55 55 54 54 53 53 53 52 51 51 51 51 51 52 51 50 49 48 46 46 46 45 45 43 42 41 40 37 34 32 33 35 32 24 18 16 16 14 13 11 9 9 9 7 7 6 5 5 7 7 6 5 6 7 8 9 10 10 11 12 16 18 20 21 23 23 23 24 26 27 29 31 32 34 34 34 33 32 32
51 51 52 53 54 54 54 54 53 53 52 52 52 51 50 49 50 50 50 50 50 49 48 47 46 46 45 45 44 42 41 40 39 37 34 28 24 27 28 23 17 15 13 12 12 11 9 9 9 8 7 6 5 5 5 5 3 2 3 4 4 6 7 8 9 12 14 16 18 19 20 21 22 23 25 27 29 30 32 34 34 34 34 33 31
51 52 53 52 53 53 53 53 52 52 51 51 50 50 49 49 49 49 48 48 49 48 48 47 46 45 45 44 43 42 40 39 37 36 35 30 23 20 21 21 18 14 11 9 8 7 9 12 11 9 7 6 6 5 4 4 4 3 2 1 2 4 5 7 8 10 11 13 14 15 16 17 17 19 21 23 26 28 30 32 32 33 33 32 31
Wind_Direction
257 259 261 262 264 264 265 265 268 274 281 286 292 298 303 306 307 309 310 311 312 312 312 312 312 312 312 312 312 311 311 309 308 306 304 303 302 301 299 298 296 295 294 292 291 291 290 289 288 286 285 284 284 285 285 285 285 285 285 285 285 285 285 286 288 288 287 286 286 284 283 282 281 279 276 275 275 275 275 274 273 273 274 275 274
260 260 261 262 264 265 268 271 275 281 288 293 298 303 308 311 313 313 313 314 314 314 314 314 314 313 313 312 312 310 309 307 306 304 302 301 300 299 297 296 295 293 292 291 290 290 290 290 289 289 288 286 285 285 284 284 284 284 284 284 284 284 284 284 286 286 285 286 285 283 282 282 281 279 277 275 275 274 273 272 272 273 274 273 274
259 259 261 263 267 270 275 280 285 291 295 298 301 307 311 314 315 314 314 315 316 316 316 316 315 314 314 312 311 309 307 306 304 303 302 301 300 298 297 296 295 294 293 291 291 290 290 290 290 290 290 289 287 286 285 284 284 283 283 284 284 284 284 284 284 284 284 285 285 284 283 282 280 278 278 276 275 273 272 271 271 271 271 271 272
256 258 261 265 270 276 282 288 293 298 301 303 306 311 314 315 314 314 316 318 318 318 318 317 316 314 313 311 309 307 306 305 303 302 302 301 301 300 299 297 295 294 293 292 291 291 290 290 289 289 289 288 287 286 285 285 285 284 284 284 284 284 283 284 283 283 283 284 284 283 283 282 281 278 277 276 274 273 272 271 270 270 269 269 270
256 260 263 267 274 282 290 295 300 305 307 309 312 314 315 315 314 316 317 318 318 318 317 316 314 313 311 309 307 306 305 304 303 302 301 301 300 299 298 297 296 296 295 295 294 293 291 290 289 288 287 286 286 285 285 285 285 285 285 284 283 283 283 282 282 282 282 282 282 281 281 281 280 279 277 275 273 273 272 270 270 269 269 268 268
258 262 267 273 281 291 298 303 307 309 311 312 314 315 315 316 317 317 317 317 318 317 316 315 314 312 310 308 307 305 304 304 303 302 302 301 300 300 299 299 299 299 299 299 298 296 295 294 292 290 288 287 286 285 285 285 285 284 284 283 283 282 282 281 280 281 280 280 279 280 280 279 278 277 276 274 273 272 271 270 269 269 268 267 267
260 265 271 279 289 298 303 308 311 313 314 315 315 316 317 317 318 317 317 318 317 316 315 314 313 311 309 307 306 305 304 304 304 304 304 304 303 302 302 301 301 302 302 302 301 300 299 298 296 294 293 291 289 287 286 285 285 284 284 283 283 282 281 280 280 279 277 277 277 278 278 277 275 274 274 274 272 270 269 270 270 268 267 266 266
262 269 278 287 296 303 309 313 315 316 317 317 317 317 318 318 318 318 318 318 317 316 314 313 312 310 307 306 305 305 305 305 305 304 304 304 303 303 303 303 304 304 305 304 303 302 302 301 299 297 296 294 292 290 288 287 286 285 284 283 283 282 282 281 280 277 276 275 275 274 274 274 273 271 271 271 271 270 268 268 268 268 266 265 265
264 273 283 292 300 307 313 315 316 318 318 318 319 318 318 319 319 319 319 319 317 316 314 313 312 310 308 307 307 307 306 305 304 303 303 303 302 303 304 305 306 306 307 306 305 304 303 302 301 300 298 296 294 292 291 290 288 286 285 284 283 282 281 281 280 278 277 275 272 271 271 271 270 268 268 268 269 271 269 266 265 265 265 264 264
270 280 289 297 304 311 315 318 320 321 321 320 320 319 320 321 321 320 319 318 317 316 314 313 312 311 310 309 308 307 306 304 303 303 303 303 302 303 304 305 305 306 306 306 305 305 304 304 303 302 300 297 295 294 293 292 290 289 287 285 284 282 281 280 280 279 278 275 272 269 268 268 267 266 265 265 267 268 268 266 263 262 263 262 262
281 290 297 305 312 318 321 322 324 323 322 320 320 320 321 321 319 318 317 316 315 314 314 312 311 310 310 310 309 309 308 306 305 305 305 305 303 303 304 304 303 303 303 303 303 303 304 304 305 304 302 299 297 295 293 292 291 290 289 287 286 284 282 279 279 279 278 276 272 269 266 265 265 263 262 262 262 264 266 266 264 262 260 259 259
297 304 309 315 320 323 324 324 324 322 320 319 319 319 319 319 317 316 316 315 314 314 313 311 310 310 310 310 311 312 311 311 310 309 309 307 306 305 305 304 303 303 302 302 303 303 304 305 305 305 304 302 300 297 295 293 292 290 289 288 287 286 284 281 279 278 278 277 273 269 265 263 262 261 258 257 258 260 262 263 262 262 261 259 257
311 316 320 323 326 326 326 325 323 321 319 318 319 319 319 319 318 316 316 316 315 314 312 311 311 311 311 311 312 312 312 312 311 310 310 309 308 308 307 306 306 305 306 306 306 306 305 306 307 305 304 303 302 300 298 297 295 292 290 288 286 285 284 283 280 278 277 276 273 268 263 261 261 259 256 254 254 255 257 260 261 261 260 259 256
320 325 327 328 329 328 326 323 321 320 319 319 319 320 319 319 318 318 318 318 317 315 313 311 311 311 311 311 311 312 311 311 310 310 310 310 309 309 308 309 308 308 309 309 309 308 308 308 307 305 304 303 302 301 300 298 297 295 292 289 286 285 283 281 281 279 276 275 273 267 262 260 260 259 255 253 253 254 256 258 259 259 259 258 256
327 328 329 329 328 326 323 321 320 320 321 320 321 320 319 319 320 321 320 319 317 315 313 312 311 311 311 311 311 311 310 310 309 309 309 309 309 309 309 310 310 310 310 310 309 308 307 306 304 303 302 301 301 300 299 298 297 295 293 291 288 285 283 280 279 278 276 273 270 265 260 257 258 257 253 252 252 253 254 256 257 257 257 257 256
328 328 329 328 325 323 320 319 320 321 321 320 320 319 318 320 321 321 320 319 317 315 313 312 311 311 310 310 310 310 309 309 309 309 309 309 309 309 310 310 310 310 309 309 307 306 305 304 302 301 300 298 297 297 297 296 295 294 293 292 290 287 285 281 278 276 274 272 267 262 256 254 256 256 251 250 250 251 252 254 255 257 258 258 257
327 327 326 322 320 318 318 318 319 319 319 319 318 316 316 320 322 322 321 319 317 314 313 312 311 310 310 309 309 309 309 309 309 309 309 309 309 309 309 309 309 308 307 306 305 305 304 302 302 301 300 297 295 295 295 294 294 293 292 292 291 289 286 282 278 274 272 270 265 258 253 253 256 255 250 247 248 249 250 252 253 255 257 258 257
324 322 319 317 317 318 318 318 318 318 318 317 317 315 316 318 322 324 323 319 316 314 312 310 309 309 308 308 308 308 308 309 309 309 309 308 308 308 308 307 307 306 305 304 303 303 302 301 301 301 300 298 295 294 294 293 292 292 292 292 292 291 288 284 279 273 271 268 262 254 250 252 255 254 248 245 245 247 247 249 251 253 255 256 258
321 319 318 318 319 319 319 319 318 318 318 318 317 316 315 316 319 323 322 319 316 313 311 309 309 309 309 309 309 309 309 310 309 309 309 308 308 307 306 305 304 303 302 302 302 302 301 300 300 299 298 298 298 297 294 293 292 291 291 291 292 291 289 286 279 274 271 266 258 251 249 252 256 253 247 244 244 245 246 246 248 251 253 254 256
319 319 318 319 319 319 319 319 318 318 317 318 317 315 315 315 317 320 321 319 315 313 311 310 309 310 310 311 310 310 310 310 310 310 309 308 306 305 304 303 303 302 302 302 301 301 300 299 298 298 298 298 298 297 296 294 293 290 288 289 290 290 289 286 279 274 270 263 254 248 249 253 256 252 246 243 243 243 245 245 246 248 251 253 254
318 318 318 319 319 319 318 318 317 317 317 317 316 314 314 316 318 320 321 319 316 314 313 312 312 312 312 312 311 311 311 311 311 309 308 307 305 304 303 303 303 303 302 301 300 300 298 298 298 297 296 295 293 293 293 294 293 291 287 286 287 288 287 284 279 274 269 259 251 248 251 255 256 251 245 242 243 243 243 244 245 246 248 251 252
319 319 319 319 318 318 318 318 318 318 317 316 314 314 315 318 319 321 321 319 317 315 314 313 314 314 313 313 313 313 313 311 310 309 307 306 304 303 303 303 302 302 301 300 299 298 297 297 296 294 292 291 290 290 290 291 291 290 287 285 285 285 285 283 278 273 266 254 247 249 254 257 256 251 245 242 242 243 243 243 243 245 246 248 250
320 319 319 319 319 320 319 319 318 317 315 314 314 316 318 320 321 321 321 319 317 316 315 314 314 314 314 314 314 313 312 310 309 308 307 305 304 303 302 302 301 300 299 299 298 297 296 295 293 291 290 289 288 287 287 287 288 288 287 285 284 283 283 281 276 270 260 248 245 251 256 258 257 251 246 242 242 242 242 242 243 244 245 246 248
320 319 320 321 322 321 319 318 317 316 315 316 317 319 321 322 322 321 320 318 317 316 315 315 315 314 315 314 314 312 310 310 309 308 306 305 303 302 302 301 301 300 299 298 298 297 296 295 293 292 290 288 287 286 285 285 285 286 286 284 283 283 282 278 273 266 253 244 245 253 257 258 256 251 247 243 242 241 242 242 242 244 245 245 246
322 322 323 324 322 320 318 317 316 315 316 318 320 321 322 323 322 321 319 318 318 317 317 317 316 316 315 314 313 312 311 310 310 308 307 305 304 303 303 302 301 301 300 300 300 299 298 296 294 292 290 288 288 286 284 283 284 284 284 283 282 282 279 274 268 259 247 242 247 254 257 258 253 249 247 245 243 242 241 242 242 242 243 243 243
324 324 324 323 320 317 316 316 316 317 318 321 323 324 324 324 323 323 322 321 320 320 319 319 318 317 315 314 313 313 313 312 311 309 308 307 307 306 306 305 303 302 302 302 301 300 298 297 295 293 290 289 288 286 284 283 282 282 282 281 282 280 276 270 262 251 242 242 249 254 257 256 251 247 245 245 245 243 241 241 241 241 241 241 241
323 323 322 319 316 315 315 318 320 322 324 325 326 326 326 326 326 325 324 323 322 322 321 320 318 317 316 316 315 315 314 313 312 311 310 309 309 308 308 306 305 303 302 302 301 300 298 297 296 294 291 289 287 285 284 283 280 279 279 280 280 277 270 264 255 244 239 243 250 255 256 254 251 247 243 242 243 242 240 240 239 239 238 237 238
322 320 318 316 315 317 320 324 326 327 327 327 327 327 327 327 326 325 324 324 323 322 321 320 319 318 318 317 315 314 313 313 313 312 311 310 310 309 308 306 304 303 302 301 300 299 298 297 297 295 293 289 286 284 283 282 278 276 278 278 276 270 264 256 246 239 240 246 252 255 254 253 252 249 243 239 239 240 239 238 238 237 236 235 236
319 317 315 316 319 323 327 328 328 327 326 326 327 327 327 327 326 325 324 323 323 322 320 319 319 318 317 316 315 314 314 314 313 312 311 310 310 309 308 306 304 303 301 300 299 299 298 298 297 297 294 289 285 283 282 279 275 275 276 275 270 263 256 247 239 237 242 248 253 254 253 252 251 249 245 239 238 239 239 237 236 235 234 234 234
316 315 317 320 324 327 328 328 327 327 327 327 327 327 326 326 325 324 323 323 322 321 320 319 318 317 316 315 315 315 314 313 312 311 310 310 309 308 307 306 305 303 302 300 299 298 298 298 298 297 295 289 284 282 279 275 274 274 274 269 263 257 249 241 237 239 244 249 252 252 251 251 250 248 245 241 239 238 238 236 234 233 232 232 233
317 319 322 325 327 328 328 328 328 327 327 327 327 326 326 325 324 323 323 322 321 320 320 319 317 316 316 315 315 314 313 313 312 311 310 310 309 308 307 306 305 304 302 301 299 299 298 298 297 296 293 289 284 280 275 271 271 271 269 263 256 251 245 238 237 242 247 251 252 250 250 250 248 246 243 242 240 238 236 234 232 232 231 230 232
322 325 327 328 328 329 329 329 328 327 327 326 326 325 325 324 323 322 321 321 320 319 318 318 317 316 316 315 314 313 313 313 312 311 311 310 310 309 308 307 307 305 304 302 301 299 298 298 297 294 291 287 283 277 271 268 267 264 260 256 249 242 239 237 239 246 251 251 251 250 250 248 246 244 241 240 240 238 235 233 231 230 229 228 230
327 329 329 329 329 330 329 328 327 327 326 325 325 325 324 323 322 321 320 320 319 319 318 317 317 317 316 316 315 314 313 313 313 312 312 312 312 311 310 310 309 308 306 305 302 300 299 298 296 293 289 285 280 273 266 264 263 255 249 249 245 237 235 238 244 250 252 250 250 250 249 246 244 243 241 239 239 237 233 230 229 228 226 225 226
330 331 330 329 329 329 328 327 326 325 325 325 325 324 324 323 322 321 320 320 319 319 318 318 318 318 317 317 316 315 315 314 314 314 314 314 313 313 312 311 310 309 308 306 303 301 300 298 295 291 287 283 277 269 262 260 258 248 237 240 243 239 236 240 246 251 251 250 250 250 248 245 243 242 242 240 238 234 231 228 227 225 223 221 223
331 331 330 329 329 328 327 326 325 324 325 325 325 324 324 323 322 322 321 321 320 320 319 319 319 318 318 317 317 317 317 317 317 317 316 316 315 314 313 313 312 311 309 307 305 302 300 297 293 289 285 281 274 266 259 255 250 240 229 231 239 242 243 247 251 252 251 250 250 249 248 244 241 241 241 239 235 230 228 226 224 221 218 217 220
331 329 328 328 328 328 327 326 325 325 326 326 325 325 324 323 323 322 322 322 321 321 321 321 320 320 320 320 319 319 319 319 319 319 318 317 317 316 315 315 313 312 311 308 305 303 300 296 291 286 282 278 271 262 255 249 240 231 224 226 235 242 249 255 259 256 252 249 248 248 248 245 241 239 238 236 232 227 225 224 220 215 212 213 218
329 327 327 328 328 328 327 327 327 326 326 326 325 325 324 324 324 323 323 323 322 322 322 322 322 322 323 323 323 322 322 322 322 321 320 319 318 318 317 316 315 313 311 308 306 303 299 295 289 284 278 273 267 258 251 243 233 225 222 227 235 245 253 260 262 260 255 250 247 246 246 244 241 237 234 231 227 224 222 220 214 209 208 212 215
328 327 328 328 328 328 327 327 327 326 326 325 325 325 325 325 324 324 323 323 323 323 324 324 324 325 325 325 325 325 325 324 324 323 322 321 320 320 319 318 317 315 312 309 307 304 300 294 287 281 276 270 262 254 246 237 228 224 225 230 238 248 257 262 262 260 256 252 248 245 243 242 239 234 230 226 223 222 219 214 208 205 206 210 214
329 329 328 328 328 328 327 326 326 325 325 325 325 325 325 325 325 324 324 324 324 324 325 325 326 326 327 327 327 327 327 326 326 325 324 323 322 322 322 321 318 316 313 310 308 304 299 293 285 279 273 266 257 247 239 231 225 224 228 235 243 251 259 264 264 260 255 250 246 243 240 239 235 229 225 222 221 221 216 209 204 203 206 209 213
329 328 327 327 327 327 326 326 326 325 325 325 325 325 325 325 325 325 325 325 325 326 326 326 327 327 328 329 329 329 328 328 327 326 326 326 326 325 324 322 319 316 313 310 307 303 298 291 283 276 269 262 251 240 232 226 224 225 231 239 247 254 258 262 263 262 257 251 246 240 236 236 231 224 220 218 218 218 212 205 203 202 204 208 211
328 327 327 326 327 327 327 327 326 326 326 325 325 326 326 326 325 325 325 325 326 327 327 327 327 328 329 329 330 329 329 329 329 328 328 328 327 326 325 323 320 316 313 311 308 303 297 290 282 274 265 256 246 234 226 224 225 229 236 244 250 255 258 257 258 258 256 254 249 241 234 232 228 221 216 214 214 213 207 202 202 201 201 205 208
327 327 327 327 328 328 328 328 327 327 327 326 326 326 326 326 325 325 325 326 326 327 328 328 329 329 330 330 330 330 330 330 331 330 329 329 328 328 326 324 320 316 313 311 309 303 297 291 282 272 261 250 241 231 225 226 230 235 242 249 253 255 257 256 254 253 252 249 246 240 233 229 225 219 215 213 209 205 203 200 198 199 202 204 205
328 328 328 329 329 329 329 328 328 328 327 327 326 327 327 326 326 326 326 326 327 328 329 330 330 331 331 331 331 332 332 332 332 331 330 330 329 329 327 324 320 316 314 312 309 304 299 292 281 268 256 245 238 232 230 232 239 245 249 253 255 256 255 254 252 250 249 245 241 237 232 227 222 215 212 213 208 202 200 198 197 200 205 205 205
329 330 330 330 330 330 330 330 329 328 328 327 327 327 327 327 327 326 326 326 328 330 331 331 332 332 332 332 333 333 334 334 333 332 331 331 331 329 328 325 321 318 316 315 312 306 301 294 281 265 254 246 240 238 241 244 247 252 254 255 255 256 255 253 250 246 245 242 238 234 228 222 217 212 208 208 207 203 199 198 199 201 204 206 208
330 330 330 330 330 330 330 330 329 328 328 328 327 327 328 328 327 327 327 328 329 331 332 333 333 333 333 334 334 335 336 336 335 334 334 333 331 330 329 327 324 321 320 319 316 311 306 299 289 274 260 254 251 250 252 254 255 256 256 255 253 252 251 250 247 241 239 236 230 225 220 212 208 206 203 201 201 201 199 200 201 202 204 209 212
331 331 331 330 330 330 330 330 330 329 329 329 329 329 329 329 329 328 329 330 330 332 333 333 334 334 335 335 336 336 337 337 337 337 336 334 331 330 330 329 327 326 327 324 321 321 318 311 302 291 277 270 269 266 262 261 260 257 255 253 251 249 247 245 240 234 230 224 215 208 207 204 197 196 198 197 195 193 194 197 200 202 206 212 216
332 332 331 331 331 330 330 331 331 330 330 329 330 331 331 331 331 331 331 332 332 333 334 334 335 335 336 337 337 338 338 338 339 340 338 335 332 331 332 332 331 335 338 334 332 339 337 327 316 303 294 286 280 275 268 262 259 256 254 252 248 245 243 238 231 226 219 209 200 195 196 195 190 189 193 196 194 191 191 196 200 202 206 213 217
333 333 332 332 331 331 332 332 332 331 331 331 332 332 332 332 333 333 333 332 333 334 334 335 336 337 337 338 339 338 338 340 341 343 342 339 335 334 337 340 341 346 353 350 351 0 352 337 324 312 304 297 288 283 277 265 256 251 252 251 246 242 238 232 227 222 213 202 195 194 196 194 190 191 196 198 197 195 194 198 202 205 208 213 218
333 333 333 333 332 333 333 333 332 332 333 333 333 334 334 334 335 334 333 333 333 334 334 336 338 338 338 339 339 339 340 341 342 344 346 346 341 337 340 348 354 358 2 2 2 3 357 344 336 327 317 310 308 306 293 276 265 256 252 249 244 238 231 224 217 213 209 205 200 198 200 199 196 198 200 201 201 200 200 202 207 210 213 217 222
334 334 335 334 333 333 333 333 333 334 334 335 335 335 336 336 336 335 334 334 334 334 336 338 339 340 340 340 340 341 342 342 342 343 347 351 352 345 343 349 1 7 6 4 0 359 2 2 357 352 343 337 340 337 312 295 300 295 261 242 231 226 217 209 207 206 205 208 207 205 206 206 203 203 205 206 207 207 207 209 212 215 218 222 225
335 335 335 334 333 334 334 334 335 336 336 336 336 336 337 338 336 335 335 335 335 336 337 339 340 341 341 340 341 342 342 342 343 345 346 349 355 356 350 350 358 4 3 355 351 6 25 23 13 10 19 28 36 37 21 5 6 350 294 228 202 206 192 189 205 213 211 211 212 211 211 209 204 202 204 207 211 213 215 216 218 220 223 225 227